Miscellaneous Local Product
Issued by NWS Hastings, NE

Home | Current Version | Previous Version | Text Only | Print | Product List | Glossary On
Versions: 1 2 3 4 5 6 7 8 9 10 11 12 13 14 15 16 17 18 19 20 21 22 23 24 25 26 27 28 29 30 31 32 33 34 35 36 37 38 39 40 41 42 43 44 45 46 47 48 49 50
865
AXUS43 KGID 241602
MISGRI

GID CWA HOURLY WEATHER ROUNDUP
NATIONAL WEATHER SERVICE HASTINGS NE
1100 AM CDT SUN SEP 24 2017

NOTE: "FAIR" INDICATES FEW OR NO CLOUDS BELOW 12,000 FEET WITH NO
SIGNIFICANT WEATHER AND/OR OBSTRUCTIONS TO VISIBILITY.

...SOUTH CENTRAL NEBRASKA...

CITY           SKY/WX    TMP DP  RH WIND       PRES   REMARKS
GRAND ISLAND   CLOUDY    75  64  68 SW16      29.92R
HASTINGS       CLOUDY    74  60  61 W14       29.93R
KEARNEY        LGT RAIN  66  64  93 S8        29.93S
ORD            LGT RAIN  54  51  90 NW13      29.94R
YORK           PTSUNNY   81  64  57 S17G23    29.91R
AURORA         MOSUNNY   77  65  65 SW12      29.91R
LEXINGTON      LGT RAIN  56  54  94 N6        29.93F
HOLDREGE       DRIZZLE   65  63  93 S7        29.94R
HEBRON         PTSUNNY   82  64  55 S15G21    29.92S

...NEBRASKA PANHANDLE...

CITY           SKY/WX    TMP DP  RH WIND       PRES   REMARKS
CHADRON        CLOUDY    49  43  80 N9        30.04R
ALLIANCE       CLOUDY    49  43  80 N13       30.01S
SCOTTSBLUFF    LGT RAIN  48  43  82 N5        30.04R
SIDNEY         LGT RAIN  47  44  90 N10       30.02S

...WESTERN AND NORTH CENTRAL NEBRASKA...

CITY           SKY/WX    TMP DP  RH WIND       PRES   REMARKS
VALENTINE      CLOUDY    51  48  89 NW13G18   29.99R
AINSWORTH      DRIZZLE   51  51 100 NW14      29.99R
ONEILL         LGT RAIN  53  53 100 NW6       29.93R
BROKEN BOW     LGT RAIN  53  53 100 N12       29.95S
IMPERIAL       CLOUDY    52  48  86 N12       29.98S
NORTH PLATTE   CLOUDY    53  50  89 N12       29.98R
MCCOOK         CLOUDY    54  53  97 N16       29.95F

...EASTERN NEBRASKA...

CITY           SKY/WX    TMP DP  RH WIND       PRES   REMARKS
NORFOLK        PTSUNNY   79  65  62 S16G26    29.87F
SO SIOUX CITY  SUNNY     79  68  69 S13       29.89F
TEKAMAH        SUNNY     83  65  54 S10G17    29.90F
COLUMBUS       PTSUNNY   81  65  58 S15G23    29.90R
ALBION         CLOUDY    74  66  75 SW13G18   29.90R
OMAHA EPPLEY   PTSUNNY   81  66  60 S14       29.92S
OFFUTT AFB     MOSUNNY   80  66  62 S9        29.92S
MILLARD        SUNNY     83  67  58 S12G17    29.92S
LINCOLN        MOSUNNY   84  65  52 S18G25    29.91S
NEBRASKA CITY  PTSUNNY   81  69  67 S10G17    29.95S
BEATRICE       MOSUNNY   83  65  53 S21       29.93S
FALLS CITY     MOSUNNY   84  67  56 S16       29.94F

...NORTHERN KANSAS...

CITY           SKY/WX    TMP DP  RH WIND       PRES   REMARKS
GOODLAND       CLOUDY    50  49  96 N10       29.98S
HILL CITY      LGT RAIN  64  63  96 CALM      29.93S FOG
NORTON         LGT RAIN  57  54  88 W7        29.94
PHILLIPSBURG   LGT RAIN  66  64  94 SW6       29.93S
SMITH CENTER   PTSUNNY   75  63  64 S7        29.92S
HAYS           CLOUDY    68  61  78 SW8       29.94R
RUSSELL        CLOUDY    76  61  59 SW12      29.92R
CONCORDIA      CLOUDY    79  67  66 S13       29.93R
SALINA         CLOUDY    85  64  49 S17G28    29.93S
TOPEKA         SUNNY     83  69  62 S13       29.96R



USA.gov is the U.S. government's official web portal to all federal, state and local government web resources and services.